Tracking 19170 objects as of 22-May-2018
HD Live streaming from Space Station
objects crossing your sky now

APRIZESAT 8

Track APRIZESAT 8 now!
10-day predictions
APRIZESAT 8 is classified as:


NORAD ID: 39425
Int'l Code: 2013-066K
Perigee: 597.7 km
Apogee: 668.7 km
Inclination: 97.6 °
Period: 97.2 minutes
Semi major axis: 7004 km
RCS: Unknown
Launch date: November 21, 2013
Source: United States (US)
Launch site: Orenburg, Russia (OREN)
aabbcc
Your satellite tracking list
Your tracking list is empty




NASA's NSSDC Master Catalog

Two Line Element Set (TLE):
1 39425U 13066K   18141.64227326 +.00000040 +00000-0 +11675-4 0  9994
2 39425 097.5849 173.6390 0050686 237.1689 122.4638 14.81035784242721
Source of the keplerian elements: AFSPC